Time,TemperatureF,DewpointF,PressureIn,WindDirection,WindDirectionDegrees,WindSpeedMPH,WindSpeedGustMPH,Humidity,HourlyPrecipIn,Conditions,Clouds,dailyrainin,SoftwareType,DateUTC
2013-06-20 00:00:00,57.8,50.3,30.14,WSW,250,0.0,0.0,76,0.00,,SCT033,0.00,VWS V15.00,2013-06-20 04:00:00,
2013-06-20 00:01:00,57.7,50.2,30.14,WSW,249,0.0,0.0,76,0.00,,CLR,0.00,VWS V14.01,2013-06-20 04:01:00,
2013-06-20 00:02:00,57.7,50.2,30.14,WSW,250,0.0,0.0,76,0.00,,CLR,0.00,VWS V14.01,2013-06-20 04:02:00,
2013-06-20 00:03:00,57.7,50.2,30.14,WSW,250,0.0,0.0,76,0.00,,CLR,0.00,VWS V14.01,2013-06-20 04:03:00,
2013-06-20 00:08:00,57.4,50.3,30.14,WSW,249,0.0,0.0,77,0.00,,CLR,0.00,VWS V14.01,2013-06-20 04:08:00,
2013-06-20 00:13:00,57.2,50.1,30.15,WSW,250,0.0,0.0,77,0.00,,CLR,0.00,VWS V14.01,2013-06-20 04:13:00,
2013-06-20 00:15:00,57.1,49.6,30.14,WSW,250,0.0,0.0,76,0.00,,SCT033,0.00,VWS V15.00,2013-06-20 04:15:00,
2013-06-20 00:18:00,56.9,49.8,30.14,WSW,250,0.0,0.0,77,0.00,,CLR,0.00,VWS V14.01,2013-06-20 04:18:00,
2013-06-20 00:23:00,56.7,49.6,30.14,WSW,250,0.0,0.0,77,0.00,,CLR,0.00,VWS V14.01,2013-06-20 04:23:00,
2013-06-20 00:28:00,56.5,49.4,30.14,WSW,250,0.0,0.0,77,0.00,,CLR,0.00,VWS V14.01,2013-06-20 04:28:00,
2013-06-20 00:30:00,56.4,49.3,30.14,WSW,250,0.0,0.0,77,0.00,,SCT033,0.00,VWS V15.00,2013-06-20 04:30:00,
2013-06-20 00:33:00,56.3,49.2,30.14,WSW,250,0.0,0.0,77,0.00,,CLR,0.00,VWS V14.01,2013-06-20 04:33:00,
2013-06-20 00:39:00,56.1,49.0,30.14,WSW,250,0.0,0.0,77,0.00,,CLR,0.00,VWS V14.01,2013-06-20 04:39:00,
2013-06-20 00:44:00,55.9,49.2,30.14,WSW,249,0.0,0.0,78,0.00,,CLR,0.00,VWS V14.01,2013-06-20 04:44:00,
2013-06-20 00:45:00,55.9,49.2,30.14,WSW,250,0.0,0.0,78,0.00,,SCT033,0.00,VWS V15.00,2013-06-20 04:45:00,
2013-06-20 00:49:00,55.8,49.4,30.14,WSW,250,0.0,0.0,79,0.00,,CLR,0.00,VWS V14.01,2013-06-20 04:49:00,
2013-06-20 00:54:00,55.7,49.3,30.14,WSW,250,0.0,0.0,79,0.00,,CLR,0.00,VWS V14.01,2013-06-20 04:54:00,
2013-06-20 00:59:00,55.5,49.4,30.14,WSW,249,0.0,0.0,80,0.00,,CLR,0.00,VWS V14.01,2013-06-20 04:59:00,
2013-06-20 01:00:00,55.5,49.4,30.14,WSW,250,0.0,0.0,80,0.00,,SCT033,0.00,VWS V15.00,2013-06-20 05:00:00,
2013-06-20 01:04:00,55.3,49.2,30.14,WSW,250,0.0,0.0,80,0.00,,CLR,0.00,VWS V14.01,2013-06-20 05:04:00,
2013-06-20 01:09:00,55.1,49.0,30.14,WSW,250,0.0,0.0,80,0.00,,CLR,0.00,VWS V14.01,2013-06-20 05:09:00,
2013-06-20 01:14:00,55.0,49.0,30.14,WSW,250,0.0,0.0,80,0.00,,CLR,0.00,VWS V14.01,2013-06-20 05:14:00,
2013-06-20 01:15:00,55.0,49.0,30.14,WSW,250,0.0,0.0,80,0.00,,SCT033,0.00,VWS V15.00,2013-06-20 05:15:00,
2013-06-20 01:19:00,54.9,49.2,30.14,WSW,250,0.0,0.0,81,0.00,,CLR,0.00,VWS V14.01,2013-06-20 05:19:00,
2013-06-20 01:24:00,54.7,48.7,30.14,WSW,250,0.0,0.0,80,0.00,,CLR,0.00,VWS V14.01,2013-06-20 05:24:00,
2013-06-20 01:29:00,54.5,48.8,30.14,WSW,250,0.0,0.0,81,0.00,,CLR,0.00,VWS V14.01,2013-06-20 05:29:00,
2013-06-20 01:30:00,54.5,48.8,30.14,WSW,250,0.0,0.0,81,0.00,,SCT033,0.00,VWS V15.00,2013-06-20 05:30:00,
2013-06-20 01:34:00,54.4,48.7,30.14,WSW,250,0.0,0.0,81,0.00,,CLR,0.00,VWS V14.01,2013-06-20 05:34:00,
2013-06-20 01:39:00,54.3,48.9,30.14,WSW,249,0.0,0.0,82,0.00,,CLR,0.00,VWS V14.01,2013-06-20 05:39:00,
2013-06-20 01:44:00,54.2,48.8,30.14,WSW,249,0.0,0.0,82,0.00,,CLR,0.00,VWS V14.01,2013-06-20 05:44:00,
2013-06-20 01:45:00,54.1,48.7,30.14,WSW,250,0.0,0.0,82,0.00,,SCT033,0.00,VWS V15.00,2013-06-20 05:45:00,
2013-06-20 01:49:00,54.0,48.6,30.15,WSW,250,0.0,0.0,82,0.00,,CLR,0.00,VWS V14.01,2013-06-20 05:49:00,
2013-06-20 01:54:00,54.0,49.0,30.15,WSW,250,0.0,0.0,83,0.00,,CLR,0.00,VWS V14.01,2013-06-20 05:54:00,
2013-06-20 01:59:00,53.9,48.9,30.15,WSW,249,0.0,0.0,83,0.00,,CLR,0.00,VWS V14.01,2013-06-20 05:59:00,
2013-06-20 02:00:00,53.8,48.8,30.15,WSW,250,0.0,0.0,83,0.00,,SCT033,0.00,VWS V15.00,2013-06-20 06:00:00,
2013-06-20 02:04:00,53.8,48.8,30.15,WSW,249,0.0,0.0,83,0.00,,CLR,0.00,VWS V14.01,2013-06-20 06:04:00,
2013-06-20 02:09:00,53.7,48.7,30.15,WSW,250,0.0,0.0,83,0.00,,CLR,0.00,VWS V14.01,2013-06-20 06:09:00,
2013-06-20 02:14:00,53.6,48.6,30.15,WSW,250,0.0,0.0,83,0.00,,CLR,0.00,VWS V14.01,2013-06-20 06:14:00,
2013-06-20 02:15:00,53.5,48.5,30.15,WSW,250,0.0,0.0,83,0.00,,SCT033,0.00,VWS V15.00,2013-06-20 06:15:00,
2013-06-20 02:19:00,53.5,48.8,30.14,WSW,250,0.0,0.0,84,0.00,,CLR,0.00,VWS V14.01,2013-06-20 06:19:00,
2013-06-20 02:24:00,53.4,48.7,30.15,WSW,250,0.0,0.0,84,0.00,,CLR,0.00,VWS V14.01,2013-06-20 06:24:00,
2013-06-20 02:29:00,53.3,48.6,30.14,WSW,250,0.0,0.0,84,0.00,,CLR,0.00,VWS V14.01,2013-06-20 06:29:00,
2013-06-20 02:30:00,53.3,48.6,30.14,WSW,250,0.0,0.0,84,0.00,,SCT033,0.00,VWS V15.00,2013-06-20 06:30:00,
2013-06-20 02:34:00,53.3,48.6,30.14,WSW,249,0.0,0.0,84,0.00,,CLR,0.00,VWS V14.01,2013-06-20 06:34:00,
2013-06-20 02:40:00,53.3,48.9,30.14,WSW,249,0.0,0.0,85,0.00,,CLR,0.00,VWS V14.01,2013-06-20 06:40:00,
2013-06-20 02:45:00,53.2,49.7,30.14,WSW,250,0.0,0.0,88,0.00,,CLR,0.00,VWS V14.01,2013-06-20 06:45:00,
2013-06-20 02:50:00,53.1,48.7,30.14,WSW,250,0.0,0.0,85,0.00,,CLR,0.00,VWS V14.01,2013-06-20 06:50:00,
2013-06-20 02:55:00,53.0,48.6,30.14,WSW,249,0.0,0.0,85,0.00,,CLR,0.00,VWS V14.01,2013-06-20 06:55:00,
2013-06-20 03:00:00,53.0,48.6,30.14,WSW,250,0.0,0.0,85,0.00,,CLR,0.00,VWS V14.01,2013-06-20 07:00:00,
2013-06-20 03:05:00,52.9,48.5,30.14,WSW,249,0.0,0.0,85,0.00,,CLR,0.00,VWS V14.01,2013-06-20 07:05:00,
2013-06-20 03:10:00,52.8,48.4,30.14,WSW,250,0.0,0.0,85,0.00,,CLR,0.00,VWS V14.01,2013-06-20 07:10:00,
2013-06-20 03:15:00,52.7,48.3,30.14,WSW,250,0.0,0.0,85,0.00,,CLR,0.00,VWS V14.01,2013-06-20 07:15:00,
2013-06-20 03:20:00,52.7,48.6,30.15,WSW,249,0.0,0.0,86,0.00,,CLR,0.00,VWS V14.01,2013-06-20 07:20:00,
2013-06-20 03:25:00,52.6,48.5,30.15,WSW,250,0.0,0.0,86,0.00,,CLR,0.00,VWS V14.01,2013-06-20 07:25:00,
2013-06-20 03:30:00,52.5,48.4,30.15,WSW,249,0.0,0.0,86,0.00,,CLR,0.00,VWS V14.01,2013-06-20 07:30:00,
2013-06-20 03:35:00,52.4,48.3,30.15,WSW,250,0.0,0.0,86,0.00,,CLR,0.00,VWS V14.01,2013-06-20 07:35:00,
2013-06-20 03:40:00,52.4,48.3,30.15,WSW,250,0.0,0.0,86,0.00,,CLR,0.00,VWS V14.01,2013-06-20 07:40:00,
2013-06-20 03:45:00,52.3,48.2,30.15,WSW,250,0.0,0.0,86,0.00,,CLR,0.00,VWS V14.01,2013-06-20 07:45:00,
2013-06-20 03:50:00,52.2,48.2,30.15,WSW,250,0.0,0.0,86,0.00,,CLR,0.00,VWS V14.01,2013-06-20 07:50:00,
2013-06-20 03:55:00,52.2,48.2,30.16,WSW,250,0.0,0.0,86,0.00,,CLR,0.00,VWS V14.01,2013-06-20 07:55:00,
2013-06-20 04:00:00,52.2,48.2,30.16,WSW,250,0.0,0.0,86,0.00,,CLR,0.00,VWS V14.01,2013-06-20 08:00:00,
2013-06-20 04:05:00,52.1,48.0,30.15,WSW,250,0.0,0.0,86,0.00,,CLR,0.00,VWS V14.01,2013-06-20 08:05:00,
2013-06-20 04:10:00,52.0,48.0,30.16,WSW,249,0.0,0.0,86,0.00,,CLR,0.00,VWS V14.01,2013-06-20 08:10:00,
2013-06-20 04:15:00,52.0,48.3,30.16,WSW,250,0.0,0.0,87,0.00,,CLR,0.00,VWS V14.01,2013-06-20 08:15:00,
2013-06-20 04:20:00,51.9,48.2,30.16,WSW,250,0.0,0.0,87,0.00,,CLR,0.00,VWS V14.01,2013-06-20 08:20:00,
2013-06-20 04:25:00,51.9,48.2,30.16,WSW,250,0.0,0.0,87,0.00,,CLR,0.00,VWS V14.01,2013-06-20 08:25:00,
2013-06-20 04:30:00,51.8,48.1,30.16,WSW,250,0.0,0.0,87,0.00,,SCT033,0.00,VWS V15.00,2013-06-20 08:30:00,
2013-06-20 04:31:00,51.8,48.1,30.16,WSW,250,0.0,0.0,87,0.00,,CLR,0.00,VWS V14.01,2013-06-20 08:31:00,
2013-06-20 04:36:00,51.7,48.0,30.16,WSW,250,0.0,0.0,87,0.00,,CLR,0.00,VWS V14.01,2013-06-20 08:36:00,
2013-06-20 04:41:00,51.6,47.9,30.16,WSW,250,0.0,0.0,87,0.00,,CLR,0.00,VWS V14.01,2013-06-20 08:41:00,
2013-06-20 04:45:00,51.5,47.8,30.16,WSW,250,0.0,0.0,87,0.00,,SCT033,0.00,VWS V15.00,2013-06-20 08:45:00,
2013-06-20 04:46:00,51.5,47.8,30.16,WSW,250,0.0,0.0,87,0.00,,CLR,0.00,VWS V14.01,2013-06-20 08:46:00,
2013-06-20 04:51:00,51.4,47.7,30.16,WSW,250,0.0,0.0,87,0.00,,CLR,0.00,VWS V14.01,2013-06-20 08:51:00,
2013-06-20 04:56:00,51.3,47.6,30.16,WSW,250,0.0,0.0,87,0.00,,CLR,0.00,VWS V14.01,2013-06-20 08:56:00,
2013-06-20 05:00:00,51.2,47.5,30.16,WSW,250,0.0,0.0,87,0.00,,SCT033,0.00,VWS V15.00,2013-06-20 09:00:00,
2013-06-20 05:01:00,51.2,47.5,30.16,WSW,250,0.0,0.0,87,0.00,,CLR,0.00,VWS V14.01,2013-06-20 09:01:00,
2013-06-20 05:06:00,51.0,47.3,30.16,WSW,249,0.0,0.0,87,0.00,,CLR,0.00,VWS V14.01,2013-06-20 09:06:00,
2013-06-20 05:11:00,50.9,47.2,30.16,WSW,249,0.0,0.0,87,0.00,,CLR,0.00,VWS V14.01,2013-06-20 09:11:00,
2013-06-20 05:15:00,50.8,47.1,30.16,WSW,250,0.0,0.0,87,0.00,,SCT033,0.00,VWS V15.00,2013-06-20 09:15:00,
2013-06-20 05:16:00,50.8,47.1,30.16,WSW,250,0.0,0.0,87,0.00,,CLR,0.00,VWS V14.01,2013-06-20 09:16:00,
2013-06-20 05:21:00,50.7,47.0,30.16,WSW,250,0.0,0.0,87,0.00,,CLR,0.00,VWS V14.01,2013-06-20 09:21:00,
2013-06-20 05:26:00,50.6,46.9,30.17,WSW,250,0.0,0.0,87,0.00,,CLR,0.00,VWS V14.01,2013-06-20 09:26:00,
2013-06-20 05:30:00,50.6,46.9,30.16,WSW,249,0.0,0.0,87,0.00,,SCT033,0.00,VWS V15.00,2013-06-20 09:30:00,
2013-06-20 05:31:00,50.6,46.9,30.16,WSW,249,0.0,0.0,87,0.00,,CLR,0.00,VWS V14.01,2013-06-20 09:31:00,
2013-06-20 05:36:00,50.6,46.9,30.17,WSW,250,0.0,0.0,87,0.00,,CLR,0.00,VWS V14.01,2013-06-20 09:36:00,
2013-06-20 05:41:00,50.5,46.8,30.17,WSW,250,0.0,0.0,87,0.00,,CLR,0.00,VWS V14.01,2013-06-20 09:41:00,
2013-06-20 05:45:00,50.5,46.8,30.17,WSW,250,0.0,0.0,87,0.00,,SCT033,0.00,VWS V15.00,2013-06-20 09:45:00,
2013-06-20 05:46:00,50.5,46.8,30.17,WSW,250,0.0,0.0,87,0.00,,CLR,0.00,VWS V14.01,2013-06-20 09:46:00,
2013-06-20 05:51:00,50.5,47.1,30.17,WSW,250,0.0,0.0,88,0.00,,CLR,0.00,VWS V14.01,2013-06-20 09:51:00,
2013-06-20 05:56:00,50.4,47.0,30.17,WSW,249,0.0,0.0,88,0.00,,CLR,0.00,VWS V14.01,2013-06-20 09:56:00,
2013-06-20 06:00:00,50.4,47.0,30.17,WSW,249,0.0,0.0,88,0.00,,SCT033,0.00,VWS V15.00,2013-06-20 10:00:00,
2013-06-20 06:01:00,50.3,46.9,30.17,WSW,249,0.0,0.0,88,0.00,,CLR,0.00,VWS V14.01,2013-06-20 10:01:00,
2013-06-20 06:06:00,50.5,47.1,30.17,WSW,249,0.0,0.0,88,0.00,,CLR,0.00,VWS V14.01,2013-06-20 10:06:00,
2013-06-20 06:11:00,50.6,47.5,30.18,WSW,249,0.0,0.0,89,0.00,,CLR,0.00,VWS V14.01,2013-06-20 10:11:00,
2013-06-20 06:15:00,50.6,47.5,30.18,WSW,249,0.0,0.0,89,0.00,,SCT033,0.00,VWS V15.00,2013-06-20 10:15:00,
2013-06-20 06:16:00,50.7,47.6,30.18,WSW,249,0.0,0.0,89,0.00,,CLR,0.00,VWS V14.01,2013-06-20 10:16:00,
2013-06-20 06:21:00,50.7,47.6,30.18,WSW,249,0.0,0.0,89,0.00,,CLR,0.00,VWS V14.01,2013-06-20 10:21:00,
2013-06-20 06:26:00,50.7,47.6,30.18,WSW,249,0.0,0.0,89,0.00,,CLR,0.00,VWS V14.01,2013-06-20 10:26:00,
2013-06-20 06:30:00,50.7,47.6,30.18,WSW,245,0.0,0.0,89,0.00,,SCT033,0.00,VWS V15.00,2013-06-20 10:30:00,
2013-06-20 06:31:00,50.8,47.7,30.18,WSW,245,0.0,0.0,89,0.00,,CLR,0.00,VWS V14.01,2013-06-20 10:31:00,
2013-06-20 06:36:00,50.8,47.7,30.18,WSW,245,0.0,0.0,89,0.00,,CLR,0.00,VWS V14.01,2013-06-20 10:36:00,
2013-06-20 06:41:00,50.9,47.8,30.18,WSW,245,0.0,0.0,89,0.00,,CLR,0.00,VWS V14.01,2013-06-20 10:41:00,
2013-06-20 06:45:00,50.9,47.8,30.18,WSW,245,0.0,0.0,89,0.00,,SCT033,0.00,VWS V15.00,2013-06-20 10:45:00,
2013-06-20 06:47:00,51.0,47.9,30.18,WSW,245,0.0,0.0,89,0.00,,CLR,0.00,VWS V14.01,2013-06-20 10:47:00,
2013-06-20 06:52:00,51.0,47.9,30.18,WSW,245,0.0,0.0,89,0.00,,CLR,0.00,VWS V14.01,2013-06-20 10:52:00,
2013-06-20 06:57:00,51.0,48.2,30.18,WSW,245,0.0,0.0,90,0.00,,CLR,0.00,VWS V14.01,2013-06-20 10:57:00,
2013-06-20 07:00:00,51.0,48.2,30.18,WSW,245,0.0,0.0,90,0.00,,SCT033,0.00,VWS V15.00,2013-06-20 11:00:00,
2013-06-20 07:02:00,51.1,48.3,30.18,WSW,245,0.0,0.0,90,0.00,,FEW230,0.00,VWS V14.01,2013-06-20 11:02:00,
2013-06-20 07:07:00,51.2,48.4,30.18,WSW,245,0.0,0.0,90,0.00,,FEW230,0.00,VWS V14.01,2013-06-20 11:07:00,
2013-06-20 07:12:00,51.5,48.7,30.18,WSW,245,0.0,0.0,90,0.00,,FEW230,0.00,VWS V14.01,2013-06-20 11:12:00,
2013-06-20 07:15:00,51.9,49.4,30.18,WSW,245,0.0,0.0,91,0.00,,SCT033,0.00,VWS V15.00,2013-06-20 11:15:00,
2013-06-20 07:17:00,52.0,49.5,30.19,WSW,245,0.0,0.0,91,0.00,,FEW230,0.00,VWS V14.01,2013-06-20 11:17:00,
2013-06-20 07:22:00,52.7,50.2,30.19,WSW,245,0.0,0.0,91,0.00,,FEW230,0.00,VWS V14.01,2013-06-20 11:22:00,
2013-06-20 07:27:00,53.2,50.7,30.19,WSW,245,0.0,0.0,91,0.00,,FEW230,0.00,VWS V14.01,2013-06-20 11:27:00,
2013-06-20 07:30:00,53.6,51.0,30.19,WSW,245,0.0,0.0,91,0.00,,SCT033,0.00,VWS V15.00,2013-06-20 11:30:00,
2013-06-20 07:32:00,53.8,51.5,30.19,WSW,245,0.0,0.0,92,0.00,,FEW230,0.00,VWS V14.01,2013-06-20 11:32:00,
2013-06-20 07:37:00,54.4,52.1,30.19,WSW,245,0.0,0.0,92,0.00,,FEW230,0.00,VWS V14.01,2013-06-20 11:37:00,
2013-06-20 07:42:00,55.0,52.7,30.19,WSW,245,0.0,0.0,92,0.00,,FEW230,0.00,VWS V14.01,2013-06-20 11:42:00,
2013-06-20 07:45:00,55.5,53.2,30.19,WSW,245,0.0,0.0,92,0.00,,SCT033,0.00,VWS V15.00,2013-06-20 11:45:00,
2013-06-20 07:47:00,55.7,53.4,30.19,WSW,245,0.0,0.0,92,0.00,,FEW230,0.00,VWS V14.01,2013-06-20 11:47:00,
2013-06-20 07:52:00,56.4,54.1,30.19,WSW,245,0.0,0.0,92,0.00,,FEW230,0.00,VWS V14.01,2013-06-20 11:52:00,
2013-06-20 07:57:00,57.0,54.7,30.19,WSW,245,0.0,0.0,92,0.00,,FEW230,0.00,VWS V14.01,2013-06-20 11:57:00,
2013-06-20 08:00:00,57.4,55.1,30.19,WSW,245,0.0,0.0,92,0.00,,SCT033,0.00,VWS V15.00,2013-06-20 12:00:00,
2013-06-20 08:02:00,57.6,55.3,30.19,WSW,245,0.0,0.0,92,0.00,,FEW230,0.00,VWS V14.01,2013-06-20 12:02:00,
2013-06-20 08:07:00,58.2,55.9,30.19,WSW,245,0.0,0.0,92,0.00,,FEW230,0.00,VWS V14.01,2013-06-20 12:07:00,
2013-06-20 08:12:00,59.0,56.7,30.19,WSW,245,0.0,0.0,92,0.00,,FEW230,0.00,VWS V14.01,2013-06-20 12:12:00,
2013-06-20 08:15:00,59.4,57.1,30.19,WSW,245,0.0,4.0,92,0.00,,SCT033,0.00,VWS V15.00,2013-06-20 12:15:00,
2013-06-20 08:17:00,59.8,57.5,30.19,WSW,245,0.0,0.0,92,0.00,,FEW230,0.00,VWS V14.01,2013-06-20 12:17:00,
2013-06-20 08:22:00,60.4,57.5,30.19,WSW,245,0.0,0.0,90,0.00,,FEW230,0.00,VWS V14.01,2013-06-20 12:22:00,
2013-06-20 08:27:00,61.0,57.7,30.19,WSW,245,0.0,0.0,89,0.00,,FEW230,0.00,VWS V14.01,2013-06-20 12:27:00,
2013-06-20 08:30:00,61.4,58.1,30.19,WSW,245,0.0,0.0,89,0.00,,SCT033,0.00,VWS V15.00,2013-06-20 12:30:00,
2013-06-20 08:32:00,61.9,58.3,30.19,WSW,245,0.0,0.0,88,0.00,,FEW230,0.00,VWS V14.01,2013-06-20 12:32:00,
2013-06-20 08:37:00,62.7,58.5,30.19,WSW,245,0.0,0.0,86,0.00,,FEW230,0.00,VWS V14.01,2013-06-20 12:37:00,
2013-06-20 08:42:00,63.5,58.2,30.19,WSW,245,0.0,0.0,83,0.00,,FEW230,0.00,VWS V14.01,2013-06-20 12:42:00,
2013-06-20 08:45:00,64.0,58.4,30.20,WSW,245,0.0,0.0,82,0.00,,SCT033,0.00,VWS V15.00,2013-06-20 12:45:00,
2013-06-20 08:47:00,64.3,58.3,30.20,WSW,245,0.0,0.0,81,0.00,,FEW230,0.00,VWS V14.01,2013-06-20 12:47:00,
2013-06-20 08:52:00,65.2,57.8,30.20,WSW,245,0.0,0.0,77,0.00,,FEW230,0.00,VWS V14.01,2013-06-20 12:52:00,
2013-06-20 08:57:00,65.8,57.7,30.20,WSW,245,0.0,0.0,75,0.00,,FEW230,0.00,VWS V14.01,2013-06-20 12:57:00,
2013-06-20 09:00:00,66.1,57.2,30.20,WSW,245,1.0,1.0,73,0.00,,SCT033,0.00,VWS V15.00,2013-06-20 13:00:00,
2013-06-20 09:03:00,66.5,58.0,30.20,WSW,245,3.0,5.0,74,0.00,,FEW230,0.00,VWS V14.01,2013-06-20 13:03:00,
2013-06-20 09:08:00,67.2,57.9,30.20,WSW,245,0.0,1.0,72,0.00,,FEW230,0.00,VWS V14.01,2013-06-20 13:08:00,
2013-06-20 09:13:00,67.8,57.7,30.20,WSW,245,0.0,0.0,70,0.00,,FEW230,0.00,VWS V14.01,2013-06-20 13:13:00,
2013-06-20 09:15:00,68.1,58.0,30.20,WSW,245,0.0,0.0,70,0.00,,SCT033,0.00,VWS V15.00,2013-06-20 13:15:00,
2013-06-20 09:18:00,68.6,58.8,30.20,WSW,245,0.0,0.0,71,0.00,,FEW230,0.00,VWS V14.01,2013-06-20 13:18:00,
2013-06-20 09:23:00,69.4,58.8,30.20,WSW,245,0.0,0.0,69,0.00,,FEW230,0.00,VWS V14.01,2013-06-20 13:23:00,
2013-06-20 09:28:00,70.0,58.1,30.20,WSW,245,0.0,0.0,66,0.00,,FEW230,0.00,VWS V14.01,2013-06-20 13:28:00,
2013-06-20 09:30:00,70.3,58.0,30.20,WSW,245,0.0,0.0,65,0.00,,SCT033,0.00,VWS V15.00,2013-06-20 13:30:00,
2013-06-20 09:33:00,70.5,58.2,30.20,WSW,245,0.0,2.0,65,0.00,,FEW230,0.00,VWS V14.01,2013-06-20 13:33:00,
2013-06-20 09:38:00,71.2,58.8,30.20,WSW,245,0.0,0.0,65,0.00,,FEW230,0.00,VWS V14.01,2013-06-20 13:38:00,
2013-06-20 09:43:00,71.6,57.9,30.20,WSW,245,0.0,0.0,62,0.00,,FEW230,0.00,VWS V14.01,2013-06-20 13:43:00,
2013-06-20 09:45:00,71.7,57.5,30.20,WSW,245,0.0,0.0,61,0.00,,SCT033,0.00,VWS V15.00,2013-06-20 13:45:00,
2013-06-20 09:48:00,72.0,57.4,30.20,WSW,245,0.0,0.0,60,0.00,,FEW230,0.00,VWS V14.01,2013-06-20 13:48:00,
2013-06-20 09:53:00,72.4,57.8,30.20,WSW,245,0.0,0.0,60,0.00,,FEW230,0.00,VWS V14.01,2013-06-20 13:53:00,
2013-06-20 09:58:00,73.0,55.9,30.20,WSW,245,2.0,4.0,55,0.00,,FEW230,0.00,VWS V14.01,2013-06-20 13:58:00,
2013-06-20 10:00:00,73.3,56.2,30.20,WSW,245,0.0,1.0,55,0.00,,SCT033,0.00,VWS V15.00,2013-06-20 14:00:00,
2013-06-20 10:03:00,73.7,57.0,30.20,WSW,245,0.0,0.0,56,0.00,,FEW230,0.00,VWS V14.01,2013-06-20 14:03:00,
2013-06-20 10:08:00,74.3,54.5,30.19,WSW,245,0.0,0.0,50,0.00,,FEW230,0.00,VWS V14.01,2013-06-20 14:08:00,
2013-06-20 10:13:00,74.7,55.4,30.19,WSW,245,0.0,0.0,51,0.00,,FEW230,0.00,VWS V14.01,2013-06-20 14:13:00,
2013-06-20 10:15:00,74.9,56.6,30.19,WSW,245,0.0,0.0,53,0.00,,SCT033,0.00,VWS V15.00,2013-06-20 14:15:00,
2013-06-20 10:18:00,75.0,56.2,30.19,WSW,245,0.0,0.0,52,0.00,,FEW230,0.00,VWS V14.01,2013-06-20 14:18:00,
2013-06-20 10:23:00,75.4,54.4,30.19,WSW,245,0.0,0.0,48,0.00,,FEW230,0.00,VWS V14.01,2013-06-20 14:23:00,
2013-06-20 10:28:00,75.7,54.6,30.20,WSW,245,0.0,0.0,48,0.00,,FEW230,0.00,VWS V14.01,2013-06-20 14:28:00,
2013-06-20 10:30:00,75.9,57.0,30.20,WSW,245,0.0,0.0,52,0.00,,SCT033,0.00,VWS V15.00,2013-06-20 14:30:00,
2013-06-20 10:33:00,76.0,53.8,30.20,WSW,245,0.0,0.0,46,0.00,,FEW230,0.00,VWS V14.01,2013-06-20 14:33:00,
2013-06-20 10:38:00,76.4,52.3,30.20,WSW,245,0.0,0.0,43,0.00,,FEW230,0.00,VWS V14.01,2013-06-20 14:38:00,
2013-06-20 10:43:00,76.7,56.7,30.20,WSW,245,0.0,0.0,50,0.00,,FEW230,0.00,VWS V14.01,2013-06-20 14:43:00,
2013-06-20 10:45:00,76.8,57.3,30.20,WSW,245,0.0,0.0,51,0.00,,SCT033,0.00,VWS V15.00,2013-06-20 14:45:00,
2013-06-20 10:48:00,76.9,54.6,30.20,WSW,245,0.0,0.0,46,0.00,,FEW230,0.00,VWS V14.01,2013-06-20 14:48:00,
2013-06-20 10:53:00,77.2,53.0,30.20,WSW,245,0.0,0.0,43,0.00,,FEW230,0.00,VWS V14.01,2013-06-20 14:53:00,
2013-06-20 10:58:00,77.3,52.5,30.20,WSW,245,0.0,0.0,42,0.00,,FEW230,0.00,VWS V14.01,2013-06-20 14:58:00,
2013-06-20 11:00:00,77.4,53.2,30.20,WSW,245,0.0,0.0,43,0.00,,SCT033,0.00,VWS V15.00,2013-06-20 15:00:00,
2013-06-20 11:03:00,77.5,55.1,30.20,WSW,245,0.0,0.0,46,0.00,,FEW230,0.00,VWS V14.01,2013-06-20 15:03:00,
2013-06-20 11:08:00,77.5,52.6,30.21,WSW,245,0.0,0.0,42,0.00,,FEW230,0.00,VWS V14.01,2013-06-20 15:08:00,
2013-06-20 11:13:00,77.7,52.8,30.21,WSW,245,0.0,0.0,42,0.00,,FEW230,0.00,VWS V14.01,2013-06-20 15:13:00,
2013-06-20 11:15:00,77.8,54.8,30.21,WSW,245,0.0,0.0,45,0.00,,SCT033,0.00,VWS V15.00,2013-06-20 15:15:00,
2013-06-20 11:19:00,78.0,53.1,30.20,WSW,245,0.0,0.0,42,0.00,,FEW230,0.00,VWS V14.01,2013-06-20 15:19:00,
2013-06-20 11:24:00,78.4,54.7,30.20,WSW,245,0.0,1.0,44,0.00,,FEW230,0.00,VWS V14.01,2013-06-20 15:24:00,
2013-06-20 11:29:00,78.8,55.1,30.20,WSW,245,0.0,0.0,44,0.00,,FEW230,0.00,VWS V14.01,2013-06-20 15:29:00,
2013-06-20 11:30:00,78.9,52.5,30.20,WSW,245,0.0,0.0,40,0.00,,SCT033,0.00,VWS V15.00,2013-06-20 15:30:00,
2013-06-20 11:34:00,79.2,53.5,30.20,WSW,245,0.0,0.0,41,0.00,,FEW230,0.00,VWS V14.01,2013-06-20 15:34:00,
2013-06-20 11:39:00,79.4,54.3,30.20,WSW,245,0.0,0.0,42,0.00,,FEW230,0.00,VWS V14.01,2013-06-20 15:39:00,
2013-06-20 11:44:00,79.6,55.2,30.20,WSW,245,0.0,0.0,43,0.00,,FEW230,0.00,VWS V14.01,2013-06-20 15:44:00,
2013-06-20 11:45:00,79.7,52.6,30.20,WSW,245,1.0,1.0,39,0.00,,SCT033,0.00,VWS V15.00,2013-06-20 15:45:00,
2013-06-20 11:49:00,79.8,56.0,30.20,WSW,245,0.0,0.0,44,0.00,,FEW230,0.00,VWS V14.01,2013-06-20 15:49:00,
2013-06-20 11:54:00,79.9,55.4,30.20,WSW,245,0.0,0.0,43,0.00,,FEW230,0.00,VWS V14.01,2013-06-20 15:54:00,
2013-06-20 11:59:00,79.9,54.1,30.20,WSW,245,0.0,0.0,41,0.00,,FEW230,0.00,VWS V14.01,2013-06-20 15:59:00,
2013-06-20 12:00:00,79.9,55.4,30.20,WSW,245,0.0,1.0,43,0.00,,SCT033,0.00,VWS V15.00,2013-06-20 16:00:00,
2013-06-20 12:04:00,80.1,54.3,30.20,WSW,245,0.0,0.0,41,0.00,,FEW230,0.00,VWS V14.01,2013-06-20 16:04:00,
2013-06-20 12:09:00,80.3,57.0,30.20,WSW,245,0.0,0.0,45,0.00,,FEW230,0.00,VWS V14.01,2013-06-20 16:09:00,
2013-06-20 12:14:00,80.6,56.1,30.20,WSW,245,0.0,3.0,43,0.00,,FEW230,0.00,VWS V14.01,2013-06-20 16:14:00,
2013-06-20 12:15:00,80.6,54.1,30.20,WSW,245,0.0,0.0,40,0.00,,SCT033,0.00,VWS V15.00,2013-06-20 16:15:00,
2013-06-20 12:19:00,80.8,53.6,30.20,WSW,245,0.0,0.0,39,0.00,,FEW230,0.00,VWS V14.01,2013-06-20 16:19:00,
2013-06-20 12:24:00,81.0,58.3,30.20,WSW,245,0.0,0.0,46,0.00,,FEW230,0.00,VWS V14.01,2013-06-20 16:24:00,
2013-06-20 12:29:00,81.0,53.7,30.20,WSW,245,0.0,0.0,39,0.00,,FEW230,0.00,VWS V14.01,2013-06-20 16:29:00,
2013-06-20 12:30:00,81.0,54.4,30.20,WSW,245,0.0,0.0,40,0.00,,SCT033,0.00,VWS V15.00,2013-06-20 16:30:00,
2013-06-20 12:34:00,81.0,55.8,30.21,WSW,245,0.0,0.0,42,0.00,,FEW230,0.00,VWS V14.01,2013-06-20 16:34:00,
2013-06-20 12:39:00,81.1,55.2,30.21,WSW,245,2.0,6.0,41,0.00,,FEW230,0.00,VWS V14.01,2013-06-20 16:39:00,
2013-06-20 12:44:00,81.2,56.0,30.21,WSW,245,0.0,0.0,42,0.00,,FEW230,0.00,VWS V14.01,2013-06-20 16:44:00,
2013-06-20 12:45:00,81.2,53.9,30.21,WSW,245,0.0,0.0,39,0.00,,SCT033,0.00,VWS V15.00,2013-06-20 16:45:00,
2013-06-20 12:49:00,81.2,54.6,30.20,WSW,245,0.0,0.0,40,0.00,,FEW230,0.00,VWS V14.01,2013-06-20 16:49:00,
2013-06-20 12:54:00,81.4,56.1,30.20,WSW,245,0.0,0.0,42,0.00,,FEW230,0.00,VWS V14.01,2013-06-20 16:54:00,
2013-06-20 12:59:00,81.6,55.0,30.20,WSW,245,0.0,0.0,40,0.00,,FEW230,0.00,VWS V14.01,2013-06-20 16:59:00,
2013-06-20 13:00:00,81.6,55.0,30.20,WSW,245,0.0,0.0,40,0.00,,SCT033,0.00,VWS V15.00,2013-06-20 17:00:00,
2013-06-20 13:04:00,81.7,55.0,30.20,WSW,245,0.0,1.0,40,0.00,,FEW230,0.00,VWS V14.01,2013-06-20 17:04:00,
2013-06-20 13:09:00,81.8,54.5,30.20,West,272,2.0,7.0,39,0.00,,FEW230,0.00,VWS V14.01,2013-06-20 17:09:00,
2013-06-20 13:14:00,81.8,54.5,30.20,NW,323,0.0,8.0,39,0.00,,SCT230,0.00,VWS V14.01,2013-06-20 17:14:00,
2013-06-20 13:15:00,81.7,55.0,30.20,NW,323,5.0,6.0,40,0.00,,SCT033,0.00,VWS V15.00,2013-06-20 17:15:00,
2013-06-20 13:19:00,81.6,53.6,30.20,NW,323,0.0,0.0,38,0.00,,SCT230,0.00,VWS V14.01,2013-06-20 17:19:00,
2013-06-20 13:25:00,81.7,55.7,30.19,NW,323,0.0,4.0,41,0.00,,SCT230,0.00,VWS V14.01,2013-06-20 17:25:00,
2013-06-20 13:30:00,82.1,57.4,30.19,NW,323,0.0,2.0,43,0.00,,SCT230,0.00,VWS V14.01,2013-06-20 17:30:00,
2013-06-20 13:35:00,82.2,58.8,30.19,NW,323,0.0,0.0,45,0.00,,SCT230,0.00,VWS V14.01,2013-06-20 17:35:00,
2013-06-20 13:40:00,82.6,59.1,30.19,NW,323,0.0,0.0,45,0.00,,SCT230,0.00,VWS V14.01,2013-06-20 17:40:00,
2013-06-20 13:45:00,82.9,56.8,30.19,NW,323,0.0,2.0,41,0.00,,SCT230,0.00,VWS V14.01,2013-06-20 17:45:00,
2013-06-20 13:50:00,83.1,57.0,30.19,NW,323,0.0,3.0,41,0.00,,SCT230,0.00,VWS V14.01,2013-06-20 17:50:00,
2013-06-20 13:55:00,83.1,55.6,30.18,NW,323,0.0,3.0,39,0.00,,SCT230,0.00,VWS V14.01,2013-06-20 17:55:00,
2013-06-20 14:00:00,83.1,56.3,30.19,NW,323,0.0,1.0,40,0.00,,SCT230,0.00,VWS V14.01,2013-06-20 18:00:00,
2013-06-20 14:05:00,83.0,55.5,30.19,NW,305,0.0,1.0,39,0.00,,SCT230,0.00,VWS V14.01,2013-06-20 18:05:00,
2013-06-20 14:10:00,83.0,56.2,30.19,NW,305,3.0,4.0,40,0.00,,SCT230,0.00,VWS V14.01,2013-06-20 18:10:00,
2013-06-20 14:15:00,82.9,56.8,30.19,NW,305,0.0,1.0,41,0.00,,BKN240,0.00,VWS V14.01,2013-06-20 18:15:00,
2013-06-20 14:20:00,82.9,57.5,30.19,NW,305,2.0,2.0,42,0.00,,BKN240,0.00,VWS V14.01,2013-06-20 18:20:00,
2013-06-20 14:25:00,83.1,55.6,30.19,NW,305,4.0,5.0,39,0.00,,BKN240,0.00,VWS V14.01,2013-06-20 18:25:00,
2013-06-20 14:30:00,83.2,57.8,30.18,NW,305,0.0,0.0,42,0.00,,BKN240,0.00,VWS V14.01,2013-06-20 18:30:00,
2013-06-20 14:35:00,83.2,55.7,30.18,NW,305,0.0,0.0,39,0.00,,BKN240,0.00,VWS V14.01,2013-06-20 18:35:00,
2013-06-20 14:40:00,83.3,55.1,30.18,NW,305,0.0,0.0,38,0.00,,BKN240,0.00,VWS V14.01,2013-06-20 18:40:00,
2013-06-20 14:45:00,83.5,56.0,30.18,NW,305,2.0,7.0,39,0.00,,BKN240,0.00,VWS V14.01,2013-06-20 18:45:00,
2013-06-20 14:50:00,83.5,55.2,30.18,NW,305,0.0,0.0,38,0.00,,BKN240,0.00,VWS V14.01,2013-06-20 18:50:00,
2013-06-20 14:55:00,83.5,55.2,30.17,NW,305,0.0,0.0,38,0.00,,BKN240,0.00,VWS V14.01,2013-06-20 18:55:00,
2013-06-20 15:00:00,83.6,55.3,30.17,NW,305,0.0,0.0,38,0.00,,BKN240,0.00,VWS V14.01,2013-06-20 19:00:00,
2013-06-20 15:05:00,83.8,57.6,30.17,NW,305,0.0,3.0,41,0.00,,BKN240,0.00,VWS V14.01,2013-06-20 19:05:00,
2013-06-20 15:10:00,83.8,56.2,30.17,West,272,0.0,6.0,39,0.00,,BKN240,0.00,VWS V14.01,2013-06-20 19:10:00,
2013-06-20 15:15:00,84.0,57.8,30.17,West,272,0.0,0.0,41,0.00,,SCT240,0.00,VWS V14.01,2013-06-20 19:15:00,
2013-06-20 15:20:00,83.9,55.6,30.17,West,272,4.0,4.0,38,0.00,,SCT240,0.00,VWS V14.01,2013-06-20 19:20:00,
2013-06-20 15:25:00,83.9,55.6,30.17,West,272,0.0,0.0,38,0.00,,SCT240,0.00,VWS V14.01,2013-06-20 19:25:00,
2013-06-20 15:30:00,84.0,57.1,30.17,West,272,0.0,3.0,40,0.00,,SCT240,0.00,VWS V14.01,2013-06-20 19:30:00,
2013-06-20 15:36:00,84.1,55.0,30.17,West,272,0.0,0.0,37,0.00,,SCT240,0.00,VWS V14.01,2013-06-20 19:36:00,
2013-06-20 15:41:00,84.3,57.4,30.17,West,272,6.0,7.0,40,0.00,,SCT240,0.00,VWS V14.01,2013-06-20 19:41:00,
2013-06-20 15:45:00,84.4,57.5,30.17,West,272,6.0,7.0,40,0.00,,SCT033,0.00,VWS V15.00,2013-06-20 19:45:00,
2013-06-20 15:46:00,84.4,57.5,30.17,West,272,2.0,7.0,40,0.00,,SCT240,0.00,VWS V14.01,2013-06-20 19:46:00,
2013-06-20 15:51:00,84.4,56.0,30.17,West,272,0.0,0.0,38,0.00,,SCT240,0.00,VWS V14.01,2013-06-20 19:51:00,
2013-06-20 15:56:00,84.5,56.8,30.17,West,272,0.0,0.0,39,0.00,,SCT240,0.00,VWS V14.01,2013-06-20 19:56:00,
2013-06-20 16:00:00,84.6,56.2,30.16,West,272,0.0,0.0,38,0.00,,SCT033,0.00,VWS V15.00,2013-06-20 20:00:00,
2013-06-20 16:01:00,84.6,56.2,30.16,West,272,0.0,0.0,38,0.00,,SCT240,0.00,VWS V14.01,2013-06-20 20:01:00,
2013-06-20 16:06:00,84.7,57.0,30.17,West,272,1.0,4.0,39,0.00,,SCT240,0.00,VWS V14.01,2013-06-20 20:06:00,
2013-06-20 16:11:00,84.8,57.1,30.16,WSW,256,5.0,7.0,39,0.00,,SCT240,0.00,VWS V14.01,2013-06-20 20:11:00,
2013-06-20 16:15:00,84.8,56.4,30.16,WSW,256,4.0,5.0,38,0.00,,SCT033,0.00,VWS V15.00,2013-06-20 20:15:00,
2013-06-20 16:16:00,84.7,54.8,30.16,WSW,256,0.0,4.0,36,0.00,,SCT240,0.00,VWS V14.01,2013-06-20 20:16:00,
2013-06-20 16:21:00,84.8,55.7,30.16,WSW,256,0.0,3.0,37,0.00,,SCT240,0.00,VWS V14.01,2013-06-20 20:21:00,
2013-06-20 16:26:00,84.9,55.0,30.16,WSW,256,0.0,5.0,36,0.00,,SCT240,0.00,VWS V14.01,2013-06-20 20:26:00,
2013-06-20 16:30:00,84.9,56.5,30.16,WSW,256,0.0,0.0,38,0.00,,SCT033,0.00,VWS V15.00,2013-06-20 20:30:00,
2013-06-20 16:31:00,84.9,57.2,30.16,WSW,256,1.0,1.0,39,0.00,,SCT240,0.00,VWS V14.01,2013-06-20 20:31:00,
2013-06-20 16:36:00,85.0,57.3,30.15,WSW,256,0.0,1.0,39,0.00,,SCT240,0.00,VWS V14.01,2013-06-20 20:36:00,
2013-06-20 16:41:00,85.0,55.1,30.16,WSW,256,0.0,3.0,36,0.00,,SCT240,0.00,VWS V14.01,2013-06-20 20:41:00,
2013-06-20 16:45:00,85.1,55.2,30.16,WSW,256,1.0,1.0,36,0.00,,SCT033,0.00,VWS V15.00,2013-06-20 20:45:00,
2013-06-20 16:46:00,85.1,56.7,30.16,WSW,256,3.0,3.0,38,0.00,,SCT240,0.00,VWS V14.01,2013-06-20 20:46:00,
2013-06-20 16:51:00,85.3,57.6,30.15,WSW,256,3.0,4.0,39,0.00,,SCT240,0.00,VWS V14.01,2013-06-20 20:51:00,
2013-06-20 16:56:00,85.4,58.4,30.15,WSW,256,0.0,0.0,40,0.00,,SCT240,0.00,VWS V14.01,2013-06-20 20:56:00,
2013-06-20 17:00:00,85.6,57.8,30.15,WSW,256,0.0,3.0,39,0.00,,SCT033,0.00,VWS V15.00,2013-06-20 21:00:00,
2013-06-20 17:01:00,85.7,59.3,30.15,WSW,256,0.0,4.0,41,0.00,,SCT240,0.00,VWS V14.01,2013-06-20 21:01:00,
2013-06-20 17:06:00,85.6,55.6,30.15,WSW,256,0.0,2.0,36,0.00,,SCT240,0.00,VWS V14.01,2013-06-20 21:06:00,
2013-06-20 17:11:00,85.6,55.6,30.15,WSW,256,0.0,0.0,36,0.00,,SCT240,0.00,VWS V14.01,2013-06-20 21:11:00,
2013-06-20 17:15:00,85.7,55.7,30.15,WSW,256,6.0,6.0,36,0.00,,SCT033,0.00,VWS V15.00,2013-06-20 21:15:00,
2013-06-20 17:16:00,85.7,56.5,30.15,WSW,256,0.0,6.0,37,0.00,,SCT240,0.00,VWS V14.01,2013-06-20 21:16:00,
2013-06-20 17:21:00,85.6,56.4,30.15,WSW,256,1.0,1.0,37,0.00,,SCT240,0.00,VWS V14.01,2013-06-20 21:21:00,
2013-06-20 17:26:00,85.5,56.3,30.15,WSW,256,0.0,0.0,37,0.00,,SCT240,0.00,VWS V14.01,2013-06-20 21:26:00,
2013-06-20 17:30:00,85.3,56.1,30.15,WSW,256,0.0,0.0,37,0.00,,SCT033,0.00,VWS V15.00,2013-06-20 21:30:00,
2013-06-20 17:31:00,85.3,56.1,30.15,WSW,256,0.0,0.0,37,0.00,,SCT240,0.00,VWS V14.01,2013-06-20 21:31:00,
2013-06-20 17:36:00,85.2,55.3,30.15,WSW,256,0.0,2.0,36,0.00,,SCT240,0.00,VWS V14.01,2013-06-20 21:36:00,
2013-06-20 17:41:00,85.0,55.8,30.15,WSW,256,1.0,1.0,37,0.00,,SCT240,0.00,VWS V14.01,2013-06-20 21:41:00,
2013-06-20 17:45:00,85.0,56.6,30.15,WSW,256,1.0,3.0,38,0.00,,SCT033,0.00,VWS V15.00,2013-06-20 21:45:00,
2013-06-20 17:47:00,84.9,55.8,30.15,WSW,256,1.0,3.0,37,0.00,,SCT240,0.00,VWS V14.01,2013-06-20 21:47:00,
2013-06-20 17:52:00,84.7,55.6,30.15,WSW,256,0.0,1.0,37,0.00,,SCT240,0.00,VWS V14.01,2013-06-20 21:52:00,
2013-06-20 17:57:00,84.5,55.4,30.15,WSW,256,0.0,3.0,37,0.00,,SCT240,0.00,VWS V14.01,2013-06-20 21:57:00,
2013-06-20 18:00:00,84.3,56.0,30.15,WSW,256,5.0,5.0,38,0.00,,SCT033,0.00,VWS V15.00,2013-06-20 22:00:00,
2013-06-20 18:02:00,84.3,56.0,30.14,WSW,256,2.0,4.0,38,0.00,,SCT240,0.00,VWS V14.01,2013-06-20 22:02:00,
2013-06-20 18:07:00,83.9,54.1,30.15,WSW,256,0.0,0.0,36,0.00,,SCT240,0.00,VWS V14.01,2013-06-20 22:07:00,
2013-06-20 18:12:00,83.6,55.3,30.14,WSW,256,3.0,4.0,38,0.00,,SCT240,0.00,VWS V14.01,2013-06-20 22:12:00,
2013-06-20 18:15:00,83.4,56.6,30.14,WSW,256,0.0,1.0,40,0.00,,SCT033,0.00,VWS V15.00,2013-06-20 22:15:00,
2013-06-20 18:17:00,83.3,55.8,30.14,WSW,256,0.0,2.0,39,0.00,,SCT240,0.00,VWS V14.01,2013-06-20 22:17:00,
2013-06-20 18:22:00,83.1,55.6,30.15,WSW,256,0.0,3.0,39,0.00,,SCT240,0.00,VWS V14.01,2013-06-20 22:22:00,
2013-06-20 18:27:00,83.0,55.5,30.14,WSW,256,0.0,0.0,39,0.00,,SCT240,0.00,VWS V14.01,2013-06-20 22:27:00,
2013-06-20 18:30:00,82.9,56.1,30.14,WSW,256,0.0,0.0,40,0.00,,SCT033,0.00,VWS V15.00,2013-06-20 22:30:00,
2013-06-20 18:32:00,82.9,56.1,30.14,WSW,256,0.0,0.0,40,0.00,,SCT240,0.00,VWS V14.01,2013-06-20 22:32:00,
2013-06-20 18:37:00,82.8,55.3,30.14,WSW,256,0.0,0.0,39,0.00,,SCT240,0.00,VWS V14.01,2013-06-20 22:37:00,
2013-06-20 18:42:00,82.7,56.0,30.14,WSW,256,0.0,0.0,40,0.00,,SCT240,0.00,VWS V14.01,2013-06-20 22:42:00,
2013-06-20 18:45:00,82.6,55.9,30.14,WSW,256,0.0,3.0,40,0.00,,SCT033,0.00,VWS V15.00,2013-06-20 22:45:00,
2013-06-20 18:47:00,82.6,57.2,30.14,WSW,256,0.0,5.0,42,0.00,,SCT240,0.00,VWS V14.01,2013-06-20 22:47:00,
2013-06-20 18:52:00,82.5,55.1,30.13,WSW,256,3.0,5.0,39,0.00,,SCT240,0.00,VWS V14.01,2013-06-20 22:52:00,
2013-06-20 18:57:00,82.4,55.7,30.13,WSW,256,2.0,4.0,40,0.00,,SCT240,0.00,VWS V14.01,2013-06-20 22:57:00,
2013-06-20 19:00:00,82.4,57.0,30.14,WSW,256,0.0,3.0,42,0.00,,SCT033,0.00,VWS V15.00,2013-06-20 23:00:00,
2013-06-20 19:02:00,82.3,56.3,30.13,WSW,256,1.0,2.0,41,0.00,,SCT240,0.00,VWS V14.01,2013-06-20 23:02:00,
2013-06-20 19:07:00,82.2,54.8,30.13,WSW,256,0.0,0.0,39,0.00,,SCT240,0.00,VWS V14.01,2013-06-20 23:07:00,
2013-06-20 19:12:00,82.1,56.8,30.13,WSW,256,0.0,1.0,42,0.00,,SCT240,0.00,VWS V14.01,2013-06-20 23:12:00,
2013-06-20 19:15:00,82.1,55.4,30.13,WSW,256,0.0,1.0,40,0.00,,SCT033,0.00,VWS V15.00,2013-06-20 23:15:00,
2013-06-20 19:17:00,82.0,56.0,30.13,WSW,256,0.0,3.0,41,0.00,,SCT240,0.00,VWS V14.01,2013-06-20 23:17:00,
2013-06-20 19:22:00,82.0,57.3,30.13,WSW,256,0.0,0.0,43,0.00,,SCT240,0.00,VWS V14.01,2013-06-20 23:22:00,
2013-06-20 19:27:00,81.9,57.2,30.13,WSW,256,0.0,0.0,43,0.00,,SCT240,0.00,VWS V14.01,2013-06-20 23:27:00,
2013-06-20 19:30:00,81.8,57.1,30.13,WSW,256,0.0,6.0,43,0.00,,SCT033,0.00,VWS V15.00,2013-06-20 23:30:00,
2013-06-20 19:32:00,81.8,57.8,30.13,WSW,256,0.0,1.0,44,0.00,,SCT240,0.00,VWS V14.01,2013-06-20 23:32:00,
2013-06-20 19:37:00,81.7,58.3,30.13,WSW,256,0.0,0.0,45,0.00,,SCT240,0.00,VWS V14.01,2013-06-20 23:37:00,
2013-06-20 19:42:00,81.6,57.6,30.12,WSW,243,0.0,3.0,44,0.00,,SCT240,0.00,VWS V14.01,2013-06-20 23:42:00,
2013-06-20 19:45:00,81.5,56.9,30.12,WSW,243,0.0,2.0,43,0.00,,SCT033,0.00,VWS V15.00,2013-06-20 23:45:00,
2013-06-20 19:47:00,81.4,56.8,30.13,WSW,243,0.0,0.0,43,0.00,,SCT240,0.00,VWS V14.01,2013-06-20 23:47:00,
2013-06-20 19:52:00,81.3,56.0,30.13,WSW,243,0.0,0.0,42,0.00,,SCT240,0.00,VWS V14.01,2013-06-20 23:52:00,
2013-06-20 19:57:00,81.2,57.2,30.12,WSW,243,0.0,0.0,44,0.00,,SCT240,0.00,VWS V14.01,2013-06-20 23:57:00,
2013-06-20 20:00:00,81.1,57.2,30.12,WSW,243,2.0,3.0,44,0.00,,SCT033,0.00,VWS V15.00,2013-06-21 00:00:00,
2013-06-20 20:03:00,81.0,56.4,30.12,WSW,243,0.0,0.0,43,0.00,,SCT240,0.00,VWS V14.01,2013-06-21 00:03:00,
2013-06-20 20:08:00,80.9,57.0,30.13,WSW,243,0.0,0.0,44,0.00,,SCT240,0.00,VWS V14.01,2013-06-21 00:08:00,
2013-06-20 20:13:00,80.8,57.5,30.13,WSW,243,0.0,0.0,45,0.00,,FEW240,0.00,VWS V14.01,2013-06-21 00:13:00,
2013-06-20 20:15:00,80.7,57.4,30.13,WSW,243,0.0,0.0,45,0.00,,SCT033,0.00,VWS V15.00,2013-06-21 00:15:00,
2013-06-20 20:18:00,80.7,58.0,30.13,WSW,243,0.0,0.0,46,0.00,,FEW240,0.00,VWS V14.01,2013-06-21 00:18:00,
2013-06-20 20:23:00,80.6,57.9,30.13,WSW,243,0.0,0.0,46,0.00,,FEW240,0.00,VWS V14.01,2013-06-21 00:23:00,
2013-06-20 20:28:00,80.4,57.8,30.13,WSW,243,0.0,0.0,46,0.00,,FEW240,0.00,VWS V14.01,2013-06-21 00:28:00,
2013-06-20 20:30:00,80.4,57.8,30.13,WSW,243,0.0,0.0,46,0.00,,SCT033,0.00,VWS V15.00,2013-06-21 00:30:00,
2013-06-20 20:33:00,80.3,57.7,30.14,WSW,243,0.0,0.0,46,0.00,,FEW240,0.00,VWS V14.01,2013-06-21 00:33:00,
2013-06-20 20:38:00,80.1,57.5,30.13,WSW,243,0.0,0.0,46,0.00,,FEW240,0.00,VWS V14.01,2013-06-21 00:38:00,
2013-06-20 20:43:00,80.0,57.4,30.13,WSW,243,0.0,1.0,46,0.00,,FEW240,0.00,VWS V14.01,2013-06-21 00:43:00,
2013-06-20 20:45:00,79.9,57.3,30.13,WSW,243,0.0,0.0,46,0.00,,SCT033,0.00,VWS V15.00,2013-06-21 00:45:00,
2013-06-20 20:48:00,79.7,57.1,30.13,WSW,243,0.0,0.0,46,0.00,,FEW240,0.00,VWS V14.01,2013-06-21 00:48:00,
2013-06-20 20:53:00,79.5,57.5,30.13,WSW,243,0.0,0.0,47,0.00,,FEW240,0.00,VWS V14.01,2013-06-21 00:53:00,
2013-06-20 20:58:00,79.3,58.5,30.13,WSW,243,0.0,0.0,49,0.00,,FEW240,0.00,VWS V14.01,2013-06-21 00:58:00,
2013-06-20 21:00:00,79.2,58.4,30.13,WSW,243,0.0,0.0,49,0.00,,SCT033,0.00,VWS V15.00,2013-06-21 01:00:00,
2013-06-20 21:03:00,79.0,58.2,30.13,WSW,243,0.0,0.0,49,0.00,,FEW240,0.00,VWS V14.01,2013-06-21 01:03:00,
2013-06-20 21:08:00,78.7,58.0,30.13,WSW,243,0.0,0.0,49,0.00,,FEW240,0.00,VWS V14.01,2013-06-21 01:08:00,
2013-06-20 21:13:00,78.4,59.3,30.13,WSW,243,0.0,0.0,52,0.00,,FEW240,0.00,VWS V14.01,2013-06-21 01:13:00,
2013-06-20 21:15:00,78.3,59.2,30.13,WSW,243,0.0,0.0,52,0.00,,SCT033,0.00,VWS V15.00,2013-06-21 01:15:00,
2013-06-20 21:18:00,78.1,59.6,30.14,WSW,243,0.0,0.0,53,0.00,,FEW240,0.00,VWS V14.01,2013-06-21 01:18:00,
2013-06-20 21:23:00,77.6,59.1,30.13,WSW,243,0.0,0.0,53,0.00,,FEW240,0.00,VWS V14.01,2013-06-21 01:23:00,
2013-06-20 21:28:00,77.2,59.3,30.14,WSW,243,0.0,0.0,54,0.00,,FEW240,0.00,VWS V14.01,2013-06-21 01:28:00,
2013-06-20 21:30:00,77.1,59.2,30.14,WSW,243,0.0,0.0,54,0.00,,SCT033,0.00,VWS V15.00,2013-06-21 01:30:00,
2013-06-20 21:33:00,76.7,59.3,30.14,WSW,243,0.0,0.0,55,0.00,,FEW240,0.00,VWS V14.01,2013-06-21 01:33:00,
2013-06-20 21:38:00,76.2,59.4,30.14,WSW,243,0.0,0.0,56,0.00,,FEW240,0.00,VWS V14.01,2013-06-21 01:38:00,
2013-06-20 21:43:00,75.6,58.8,30.14,WSW,243,0.0,0.0,56,0.00,,FEW240,0.00,VWS V14.01,2013-06-21 01:43:00,
2013-06-20 21:45:00,75.3,59.0,30.14,WSW,243,0.0,0.0,57,0.00,,SCT033,0.00,VWS V15.00,2013-06-21 01:45:00,
2013-06-20 21:48:00,74.9,58.7,30.14,WSW,243,0.0,0.0,57,0.00,,FEW240,0.00,VWS V14.01,2013-06-21 01:48:00,
2013-06-20 21:53:00,74.2,59.0,30.15,WSW,243,0.0,0.0,59,0.00,,FEW240,0.00,VWS V14.01,2013-06-21 01:53:00,
2013-06-20 21:58:00,73.7,59.4,30.14,WSW,243,0.0,0.0,61,0.00,,FEW240,0.00,VWS V14.01,2013-06-21 01:58:00,
2013-06-20 22:00:00,73.6,59.3,30.14,WSW,243,0.0,0.0,61,0.00,,SCT033,0.00,VWS V15.00,2013-06-21 02:00:00,
2013-06-20 22:04:00,73.3,59.0,30.14,WSW,243,0.0,0.0,61,0.00,,FEW240,0.00,VWS V14.01,2013-06-21 02:04:00,
2013-06-20 22:09:00,72.8,58.1,30.15,WSW,243,0.0,0.0,60,0.00,,FEW240,0.00,VWS V14.01,2013-06-21 02:09:00,
2013-06-20 22:14:00,72.4,58.2,30.15,WSW,243,0.0,0.0,61,0.00,,FEW240,0.00,VWS V14.01,2013-06-21 02:14:00,
2013-06-20 22:15:00,72.3,58.6,30.15,WSW,243,0.0,0.0,62,0.00,,SCT033,0.00,VWS V15.00,2013-06-21 02:15:00,
2013-06-20 22:19:00,72.0,58.7,30.15,WSW,243,0.0,0.0,63,0.00,,FEW240,0.00,VWS V14.01,2013-06-21 02:19:00,
2013-06-20 22:24:00,71.6,58.3,30.15,WSW,243,0.0,0.0,63,0.00,,FEW240,0.00,VWS V14.01,2013-06-21 02:24:00,
2013-06-20 22:29:00,71.2,58.0,30.15,WSW,243,0.0,0.0,63,0.00,,FEW240,0.00,VWS V14.01,2013-06-21 02:29:00,
2013-06-20 22:30:00,71.1,58.3,30.15,WSW,243,0.0,0.0,64,0.00,,SCT033,0.00,VWS V15.00,2013-06-21 02:30:00,
2013-06-20 22:34:00,70.8,58.5,30.15,WSW,243,0.0,0.0,65,0.00,,FEW240,0.00,VWS V14.01,2013-06-21 02:34:00,
2013-06-20 22:39:00,70.5,58.2,30.16,WSW,243,0.0,0.0,65,0.00,,FEW240,0.00,VWS V14.01,2013-06-21 02:39:00,
2013-06-20 22:44:00,70.2,57.9,30.16,WSW,243,0.0,0.0,65,0.00,,FEW240,0.00,VWS V14.01,2013-06-21 02:44:00,
2013-06-20 22:45:00,70.1,57.8,30.16,WSW,243,0.0,0.0,65,0.00,,SCT033,0.00,VWS V15.00,2013-06-21 02:45:00,
2013-06-20 22:49:00,69.9,57.6,30.16,WSW,243,0.0,0.0,65,0.00,,FEW240,0.00,VWS V14.01,2013-06-21 02:49:00,
2013-06-20 22:54:00,69.5,57.2,30.16,WSW,243,0.0,0.0,65,0.00,,FEW240,0.00,VWS V14.01,2013-06-21 02:54:00,
2013-06-20 22:59:00,69.2,57.4,30.16,WSW,243,0.0,0.0,66,0.00,,FEW240,0.00,VWS V14.01,2013-06-21 02:59:00,
2013-06-20 23:00:00,69.1,57.3,30.16,WSW,243,0.0,0.0,66,0.00,,SCT033,0.00,VWS V15.00,2013-06-21 03:00:00,
2013-06-20 23:04:00,68.9,57.5,30.16,WSW,243,0.0,0.0,67,0.00,,FEW240,0.00,VWS V14.01,2013-06-21 03:04:00,
2013-06-20 23:09:00,68.6,57.6,30.16,WSW,243,0.0,0.0,68,0.00,,FEW240,0.00,VWS V14.01,2013-06-21 03:09:00,
2013-06-20 23:14:00,68.3,56.9,30.16,WSW,243,0.0,0.0,67,0.00,,FEW240,0.00,VWS V14.01,2013-06-21 03:14:00,
2013-06-20 23:15:00,68.3,56.9,30.16,WSW,243,0.0,0.0,67,0.00,,SCT033,0.00,VWS V15.00,2013-06-21 03:15:00,
2013-06-20 23:19:00,68.1,57.2,30.16,WSW,243,0.0,0.0,68,0.00,,FEW240,0.00,VWS V14.01,2013-06-21 03:19:00,
2013-06-20 23:24:00,67.8,56.9,30.16,WSW,243,0.0,0.0,68,0.00,,FEW240,0.00,VWS V14.01,2013-06-21 03:24:00,
2013-06-20 23:29:00,67.6,57.1,30.16,WSW,243,0.0,0.0,69,0.00,,FEW240,0.00,VWS V14.01,2013-06-21 03:29:00,
2013-06-20 23:30:00,67.5,57.0,30.16,WSW,243,0.0,0.0,69,0.00,,SCT033,0.00,VWS V15.00,2013-06-21 03:30:00,
2013-06-20 23:34:00,67.3,56.8,30.16,WSW,243,0.0,0.0,69,0.00,,FEW240,0.00,VWS V14.01,2013-06-21 03:34:00,
2013-06-20 23:39:00,67.0,56.5,30.17,WSW,243,0.0,0.0,69,0.00,,FEW240,0.00,VWS V14.01,2013-06-21 03:39:00,
2013-06-20 23:44:00,66.8,56.3,30.16,WSW,243,0.0,0.0,69,0.00,,FEW240,0.00,VWS V14.01,2013-06-21 03:44:00,
2013-06-20 23:45:00,66.8,56.3,30.16,WSW,243,0.0,0.0,69,0.00,,SCT033,0.00,VWS V15.00,2013-06-21 03:45:00,
2013-06-20 23:49:00,66.6,56.5,30.16,WSW,243,0.0,0.0,70,0.00,,FEW240,0.00,VWS V14.01,2013-06-21 03:49:00,
2013-06-20 23:54:00,66.4,56.7,30.17,WSW,243,0.0,0.0,71,0.00,,FEW240,0.00,VWS V14.01,2013-06-21 03:54:00,
2013-06-20 23:59:00,66.2,56.9,30.16,WSW,243,0.0,0.0,72,0.00,,FEW240,0.00,VWS V14.01,2013-06-21 03:59:00,